OPS 4682 DEB, 38377

Orbit data source: Space-Track

OPS 4682 DEB, 38377 is space debris in LEO originally from a launch on Sat, 03 Apr 1965 UTC launched from the Air Force Western Test Range (AFWTR). Debris objects in space refer to the collection of defunct objects orbiting the Earth. Examples of debris include non-operational satellites, rocket bodies, and fragments generated from explosions, collisions, or faulty payload assembly.

Loading next visibility...
Identifier
38377, 1965-027CE
Orbit
LEO
Country
Flag of USUS
Related business
Manufacturer
Unknown
Mission
Spacecraft
Bus & Motor
Unknown
Mass
Unknown
Launch date (UTC)
1965-04-03 (61 years ago)
Launch vehicle
Unknown
Launch site
Air Force Western Test Range (AFWTR)
Object type
Payload
Rocket body
Debris
Shape & HBR
Unknown shape, 0.1 m
Radar Cross Section
Medium (>0.1 m² and <1 m²)

Expand to show TLE details & history
Last TLE update: 13 hours ago

TLE from 13 hours ago
0 OPS 4682 DEB
1 38377U 65027CE  26175.27664695 -.00000057  00000-0 -22358-3 0  9991
2 38377  90.2498  11.4994 0037695  92.1907 268.3530 12.96662366605025
Epoch: 2026-06-24T06:38Z
TLE epoch observation values (Epoch: 2026-06-24T06:38:22.296Z)
Latitude
-0.00005°
Longitude
-0.52968°
Altitude
1,279.009 km
Speed
7.216 km/s
True Right ascension
00h 45m 59s
True Declination
0° 00' 00"
Sunlit
Object was in daylight at epoch
Visualization orbit readout
Latitude
Unknown
Longitude
Unknown
Altitude
Unknown
Speed
Unknown
Apparent Right ascension
Unknown
Apparent Declination
Unknown
Sunlit
N/A
Visualization observer readout
Local Sidereal Time
06:50:21
Azimuth
Unknown
Elevation
Unknown
Doppler factor
Unknown
Orbital elements
Apogee altitude
1,301.162 km
Perigee altitude
1,243.485 km
Semi-major axis
7,650.461 km
Eccentricity
0.00377
Inclination
90.2498°
RAAN
11.4994°
Arg. of periapsis
92.1907°
True anomaly
267.92129°
Mean anomaly
268.353°
Eccentric anomaly
268.13714°
Mean motion
3.24348 °/min
Orbital period
110.99 mins
BSTAR
-0.00022358
Loading maneuver chart data...
Computing Atmospheric mass density...
Loading historical data...
Loading historical data...
Loading historical data...
Loading historical data...
Loading historical data...
Loading historical data...
Loading historical data...

Documentation

Showing up to 5 results
|